Regional Weather Roundup
Issued by NWS

Home | Current Version | Previous Version | Graphics & Text | Print | Product List | Glossary On
Versions: 1 2 3 4 5 6 7 8 9 10 11 12 13 14 15 16 17 18 19 20 21 22 23 24 25 26 27 28 29 30 31 32 33 34 35 36 37 38 39 40 41 42 43 44 45 46 47 48 49 50
000
ASUS43 KDTX 010701
RWRMI
MICHIGAN HOURLY REGIONAL WEATHER ROUNDUP
NATIONAL WEATHER SERVICE DETROIT/PONTIAC MI
300 AM EDT MON SEP 01 2014

NOTE: "FAIR" INDICATES FEW OR NO CLOUDS BELOW 12,000 FEET WITH NO
SIGNIFICANT WEATHER AND/OR OBSTRUCTION TO VISIBILITY.

MIZ047>049-052>055-059>063-066>070-074>076-081>083-010800-
SOUTHEAST LOWER MICHIGAN

CITY           SKY/WX    TMP DP  RH WIND       PRES   REMARKS
ADRIAN         CLEAR     69  67  93 W3        29.96S
ALMA           FOG       60  59  97 CALM      29.91F VSB 1/4
BAD AXE        CLOUDY    67  67 100 S3        29.92F
CARO           MOCLDY    66  65  97 SW3       29.91S
DETROIT CITY   CLEAR     76  69  79 SW8       29.94S
DETROIT        PTCLDY    71  69  93 S6        29.95S
FLINT          CLEAR     70  65  84 SW3       29.93S
GROSSE ILE     CLEAR     73  70  88 SW3       29.93S
HILLSDALE      CLEAR     71  71 100 SW3       29.95F FOG
HOWELL         PTCLDY    67  66  94 CALM      29.94S

CITY           SKY/WX    TMP DP  RH WIND       PRES   REMARKS
JACKSON        CLEAR     69  66  90 S3        29.93F
LAMBERTVILLE   CLEAR     72  68  88 S5        29.95F
LANSING        CLEAR     67  64  90 CALM      29.92F
LAPEER         FAIR      65  64  95 CALM      29.93S FOG
MASON          CLEAR     65  64  95 S3        29.93F
MONROE         CLEAR     72  68  88 S5        29.93S
MT. CLEMENS    CLEAR     73  69  87 SW7       29.92S
PONTIAC        MOCLDY    71  67  87 CALM      29.94S
PORT HOPE        N/A     67  65  93 SE5       29.90F
PORT HURON     MOCLDY    66  66 100 CALM      29.93S FOG
TRI CITIES     PTCLDY    67  65  93 SW3       29.91F FOG
TROY           CLEAR     73  68  85 SW5       29.95S
SAGINAW HB     CLEAR     64  64 100 CALM      29.91R
$$
MIZ043>046-050>051-056>058-064>065-071>073-077>080-010800-
SOUTHWEST LOWER MICHIGAN

CITY           SKY/WX    TMP DP  RH WIND       PRES   REMARKS
BATTLE CREEK   CLEAR     70  67  90 S7        29.92F
BENTON HARBOR  CLEAR     71  68  90 S9        29.88F
BIG RAPIDS     CLEAR     61  61 100 CALM      29.88F
COLDWATER      CLEAR     72  70  95 S3        29.93F
FREMONT        FAIR      67  65  95 SE3       29.86F
HOLLAND        MOCLDY    70  67  90 S7        29.88F
GRAND RAPIDS   CLEAR     67  67 100 S8        29.89F
IONIA          FAIR      67  65  92 S7        29.90F
KALAMAZOO      CLEAR     71  68  90 S8        29.91F FOG
LUDINGTON      PTCLDY    69  66  90 S3        29.85S
MARSHALL       PTCLDY    68  67  98 CALM      29.92F FOG
MOUNT PLEASANT FOG       59  58  98 CALM      29.89F VSB 1/2
MUSKEGON       CLEAR     71  66  84 S8        29.86F
SOUTH HAVEN    PTCLDY    71  69  94 S6        29.88F
$$
MIZ016>042-010800-
NORTHERN LOWER MICHIGAN

CITY           SKY/WX    TMP DP  RH WIND       PRES   REMARKS
ALPENA         FOG       60  60 100 S3        29.92S VSB 1/4
BEAVER ISLAND  PTCLDY    66  64  94 S7        29.83F
BELLAIRE       FOG       59  58  96 CALM      29.85F VSB 1
CADILLAC       PTCLDY    64  63  97 CALM      29.88F
CHARLEVOIX     CLEAR     64  64  97 SE8       29.87F
FRANKFORT      PTCLDY    71  63  74 SE7       29.82F
GAYLORD        PTCLDY    62  61  96 S8        29.91F
GRAYLING       CLEAR     56  56 100 CALM      29.91F FOG
HARBOR SPRINGS CLEAR     63  61  93 NE3       29.87F
HOUGHTON LAKE  FOG       58  58 100 E3        29.90F VSB 1/4
MANISTEE       PTCLDY    66  63  88 SE3       29.85S
OSCODA         PTCLDY    58  58  97 CALM      29.90S FOG
PELLSTON       CLEAR     57  57 100 CALM      29.87F
ROGERS CITY    CLOUDY    61  61 100 S5        29.92S
TRAVERSE CITY  CLEAR     66  62  87 CALM      29.83F
$$
MIZ007>008-015-010800-
EASTERN UPPER MICHIGAN

CITY           SKY/WX    TMP DP  RH WIND       PRES   REMARKS
KINROSS        CLEAR     61  59  94 SE12      29.87F
MACKINAC ISLAN MOCLDY    62  62  98 SE9       29.86F
NEWBERRY       MOCLDY    60  60  99 SE6       29.82F
S. S. MARIE    CLOUDY    60  59  96 E5        29.89S FOG
$$
MIZ004>006-011>014-085-010800-
CENTRAL UPPER MICHIGAN

CITY           SKY/WX    TMP DP  RH WIND       PRES   REMARKS
MANISTIQUE     PTCLDY    63  63  98 SE7       29.79F
ESCANABA       PTCLDY    64  63  94 S7        29.78S
MENOMINEE      PTCLDY    66  64  94 S7        29.76S
SAWYER-GWINN   CLOUDY    64  62  96 S14       29.76F FOG
$$
MIZ001>003-009>011-084-010800-
WESTERN UPPER MICHIGAN

CITY           SKY/WX    TMP DP  RH WIND       PRES   REMARKS
IRON MOUNTAIN  CLOUDY    65  64  97 SE8       29.75F FOG
HOUGHTON       MOCLDY    65  62  90 SE9       29.66F
COPPER HARBOR    N/A     64  60  87 SW10G20   29.65F
$$

ABBREVIATIONS USED IN REMARKS
   TC - TEMPERATURE IN CELSIUS
  WCI - WIND CHILL INDEX
   HX - HEAT INDEX
  VSB - VISIBILITY



USA.gov is the U.S. government's official web portal to all federal, state and local government web resources and services.